Hourly Weather Sudolek

Today, 18 January, Monday

Time Temperature Precipitation Wind Pressure Humidity
00:00 -15°C° 0 mm 1 mps 739 mmHg 93%
01:00 -17°C° 0 mm 2 mps 739 mmHg 94%
02:00 -17°C° 0 mm 2 mps 739 mmHg 93%
03:00 -17°C° 0 mm 2 mps 739 mmHg 93%
04:00 -17°C° 0 mm 2 mps 739 mmHg 93%
05:00 -15°C° 0 mm 1 mps 739 mmHg 93%
06:00 -16°C° 0 mm 1 mps 739 mmHg 93%
07:00 -16°C° 0 mm 1 mps 739 mmHg 92%
08:00 -15°C° 0 mm 1 mps 739 mmHg 90%
09:00 -14°C° 0 mm 1 mps 739 mmHg 88%
10:00 -13°C° 0 mm 1 mps 740 mmHg 86%
11:00 -12°C° 0 mm 1 mps 739 mmHg 84%
12:00 -11°C° 0 mm 1 mps 739 mmHg 82%
13:00 -9°C° 0 mm 1 mps 739 mmHg 80%
14:00 -10°C° 0 mm 1 mps 739 mmHg 82%
15:00 -11°C° 0 mm 1 mps 738 mmHg 85%
16:00 -11°C° 0 mm 1 mps 738 mmHg 87%
17:00 -11°C° 0 mm 1 mps 738 mmHg 87%
18:00 -11°C° 0 mm 1 mps 738 mmHg 87%
19:00 -11°C° 0 mm 1 mps 739 mmHg 87%
20:00 -11°C° 0 mm 1 mps 738 mmHg 87%
21:00 -10°C° 0 mm 1 mps 738 mmHg 87%
22:00 -12°C° 0 mm 2 mps 738 mmHg 87%
23:00 -10°C° 0 mm 2 mps 738 mmHg 89%

Tomorrow, 19 January, Tuesday

Time Temperature Precipitation Wind Pressure Humidity
00:00 -10°C° 0 mm 2 mps 738 mmHg 90%
01:00 -9°C° 0 mm 2 mps 738 mmHg 92%
02:00 -9°C° 0.2 mm 2 mps 737 mmHg 93%
03:00 -8°C° 0.2 mm 2 mps 737 mmHg 94%
04:00 -8°C° 0.2 mm 3 mps 737 mmHg 96%
05:00 -7°C° 0.3 mm 3 mps 736 mmHg 95%
06:00 -7°C° 0.3 mm 3 mps 736 mmHg 95%
07:00 -6°C° 0.3 mm 3 mps 736 mmHg 95%
08:00 -5°C° 0.1 mm 4 mps 736 mmHg 94%
09:00 -4°C° 0.1 mm 4 mps 736 mmHg 94%
10:00 -4°C° 0.1 mm 5 mps 736 mmHg 93%
11:00 -4°C° 0.1 mm 5 mps 736 mmHg 93%
12:00 -2°C° 0.1 mm 5 mps 736 mmHg 94%
13:00 -2°C° 0.1 mm 4 mps 735 mmHg 95%
14:00 -2°C° 0 mm 4 mps 735 mmHg 93%
15:00 -2°C° 0 mm 3 mps 735 mmHg 91%
16:00 -2°C° 0 mm 3 mps 734 mmHg 90%
17:00 -2°C° 0 mm 3 mps 734 mmHg 89%
18:00 -2°C° 0 mm 3 mps 734 mmHg 89%
19:00 -2°C° 0 mm 3 mps 734 mmHg 89%
20:00 -4°C° 0.2 mm 3 mps 733 mmHg 89%
21:00 -4°C° 0.2 mm 3 mps 733 mmHg 90%
22:00 -4°C° 0.2 mm 3 mps 733 mmHg 91%
23:00 -4°C° 0.1 mm 3 mps 732 mmHg 92%

Day after tomorrow, 20 January, Wednesday

Time Temperature Precipitation Wind Pressure Humidity
00:00 -4°C° 0.1 mm 3 mps 732 mmHg 93%
01:00 -4°C° 0.1 mm 4 mps 732 mmHg 95%
02:00 -3°C° 0.6 mm 4 mps 732 mmHg 95%
03:00 -2°C° 0.6 mm 4 mps 732 mmHg 95%
04:00 -2°C° 0.6 mm 5 mps 731 mmHg 95%
05:00 -1°C° 0.1 mm 4 mps 732 mmHg 96%
06:00 -1°C° 0.1 mm 4 mps 732 mmHg 96%
07:00 0°C° 0.1 mm 4 mps 732 mmHg 97%
08:00 0°C° 0 mm 4 mps 732 mmHg 97%
09:00 0°C° 0 mm 4 mps 732 mmHg 97%
10:00 0°C° 0 mm 4 mps 732 mmHg 98%
11:00 0°C° 0 mm 4 mps 732 mmHg 98%
12:00 +1°C° 0 mm 3 mps 732 mmHg 98%
13:00 +1°C° 0 mm 3 mps 732 mmHg 98%
14:00 +1°C° 0 mm 3 mps 732 mmHg 95%
15:00 +1°C° 0 mm 3 mps 732 mmHg 91%
16:00 +1°C° 0 mm 3 mps 732 mmHg 88%
17:00 0°C° 0 mm 3 mps 732 mmHg 86%
18:00 0°C° 0 mm 3 mps 732 mmHg 84%
19:00 0°C° 0 mm 3 mps 732 mmHg 82%
20:00 -1°C° 0 mm 3 mps 732 mmHg 82%
21:00 -1°C° 0 mm 3 mps 732 mmHg 83%
22:00 -2°C° 0 mm 3 mps 732 mmHg 83%
23:00 -2°C° 0 mm 3 mps 731 mmHg 83%

21 January, Thursday

Time Temperature Precipitation Wind Pressure Humidity
00:00 -2°C° 0 mm 2 mps 731 mmHg 83%
01:00 -2°C° 0 mm 2 mps 731 mmHg 83%
02:00 -2°C° 0 mm 2 mps 731 mmHg 83%
03:00 -2°C° 0 mm 2 mps 731 mmHg 83%
04:00 0°C° 0 mm 1 mps 730 mmHg 83%
05:00 0°C° 0 mm 1 mps 730 mmHg 84%
06:00 0°C° 0 mm 1 mps 730 mmHg 84%
07:00 0°C° 0 mm 1 mps 730 mmHg 85%
08:00 0°C° 0 mm 1 mps 730 mmHg 87%
09:00 +1°C° 0 mm 1 mps 730 mmHg 90%
10:00 +2°C° 0 mm 1 mps 729 mmHg 92%
11:00 +2°C° 0 mm 1 mps 729 mmHg 94%
12:00 +3°C° 0 mm 1 mps 729 mmHg 96%
13:00 +2°C° 0 mm 2 mps 728 mmHg 97%
14:00 +2°C° 0 mm 2 mps 728 mmHg 94%
15:00 +2°C° 0 mm 2 mps 727 mmHg 90%
16:00 +1°C° 0 mm 3 mps 727 mmHg 87%
17:00 +1°C° 0 mm 3 mps 727 mmHg 87%
18:00 +1°C° 0 mm 3 mps 727 mmHg 86%
19:00 +1°C° 0 mm 3 mps 728 mmHg 86%
20:00 +1°C° 0 mm 3 mps 728 mmHg 86%
21:00 +1°C° 0 mm 3 mps 728 mmHg 86%
22:00 +1°C° 0 mm 3 mps 728 mmHg 86%
23:00 +1°C° 0 mm 3 mps 727 mmHg 86%

22 January, Friday

Time Temperature Precipitation Wind Pressure Humidity
00:00 +2°C° 0 mm 2 mps 727 mmHg 86%
01:00 +2°C° 0 mm 2 mps 727 mmHg 85%
02:00 +2°C° 0 mm 2 mps 727 mmHg 86%
03:00 +1°C° 0 mm 3 mps 726 mmHg 86%
04:00 +1°C° 0 mm 3 mps 725 mmHg 86%
05:00 +1°C° 0 mm 3 mps 725 mmHg 86%
06:00 0°C° 0 mm 4 mps 724 mmHg 85%
07:00 0°C° 0 mm 4 mps 724 mmHg 85%
08:00 +1°C° 0 mm 4 mps 724 mmHg 88%
09:00 +1°C° 0 mm 4 mps 723 mmHg 91%
10:00 +3°C° 0 mm 4 mps 723 mmHg 94%
11:00 +3°C° 0 mm 4 mps 723 mmHg 94%
12:00 +4°C° 0 mm 3 mps 723 mmHg 94%
13:00 +4°C° 0 mm 3 mps 723 mmHg 95%
14:00 +4°C° 0 mm 3 mps 723 mmHg 93%
15:00 +3°C° 0 mm 3 mps 723 mmHg 91%
16:00 +3°C° 0 mm 3 mps 723 mmHg 89%
17:00 +4°C° 0.1 mm 2 mps 723 mmHg 90%
18:00 +3°C° 0.1 mm 2 mps 723 mmHg 90%
19:00 +3°C° 0.1 mm 2 mps 723 mmHg 91%
20:00 +3°C° 1.3 mm 2 mps 723 mmHg 93%
21:00 +3°C° 1.3 mm 2 mps 723 mmHg 94%
22:00 +2°C° 1.3 mm 2 mps 723 mmHg 96%
23:00 +2°C° 0.6 mm 2 mps 723 mmHg 96%

23 January, Saturday

Time Temperature Precipitation Wind Pressure Humidity
00:00 +1°C° 0.6 mm 3 mps 723 mmHg 97%
01:00 -1°C° 0.6 mm 4 mps 724 mmHg 97%
02:00 -1°C° 0.4 mm 4 mps 724 mmHg 97%
03:00 -1°C° 0.4 mm 5 mps 724 mmHg 97%
04:00 -1°C° 0.4 mm 5 mps 725 mmHg 97%
05:00 -1°C° 0.2 mm 5 mps 725 mmHg 96%
06:00 -2°C° 0.2 mm 4 mps 726 mmHg 96%
07:00 -1°C° 0.2 mm 3 mps 726 mmHg 95%
08:00 -1°C° 0 mm 3 mps 727 mmHg 94%
09:00 0°C° 0 mm 3 mps 727 mmHg 93%
10:00 0°C° 0 mm 3 mps 728 mmHg 93%
11:00 +1°C° 0 mm 2 mps 728 mmHg 92%
12:00 +2°C° 0 mm 2 mps 728 mmHg 91%
13:00 +3°C° 0 mm 1 mps 728 mmHg 90%
14:00 +2°C° 0 mm 1 mps 727 mmHg 91%
15:00 +2°C° 0 mm 1 mps 727 mmHg 91%
16:00 +1°C° 0 mm 1 mps 727 mmHg 92%
17:00 +1°C° 0 mm 1 mps 727 mmHg 92%
18:00 -1°C° 0 mm 2 mps 726 mmHg 92%
19:00 -2°C° 0 mm 2 mps 726 mmHg 92%
20:00 -2°C° 0 mm 2 mps 726 mmHg 92%
21:00 -2°C° 0 mm 2 mps 726 mmHg 91%
22:00 -2°C° 0 mm 2 mps 726 mmHg 91%
23:00 -2°C° 0 mm 2 mps 725 mmHg 91%
Show more